Flag Weather past 2 weeks in Peristeri, Greece

Now
63 °F

Partly sunny.


Feels Like: 63 °F
Forecast: 54 / 63 °F
Wind: 12 mph from Northwest

Location: Elefsis Airport

Current Time: Oct 31, 2014 at 11:55:17 AM

Latest Report: Oct 31, 2014 at 11:20 AM


Visibility: N/A

Pressure: 30.09 "Hg

Humidity: 56%

Dew point: 46 °F

Location of PeristeriLocation

Historic Weather in Peristeri — Graph

°F

Peristeri temperature yesterday

Maximum temperature yesterday: 68 °F (at 12:50 PM)
Minimum temperature yesterday: 55 °F (at 2:50 AM)
Average temperature yesterday: 60 °F

Past Weeks' High & Low Weather Summary

 TemperatureHumidityPressure
High88 °F (Oct 16, 3:50 PM)100% (Oct 22, 10:20 AM)30.30 "Hg (Oct 22, 10:20 AM)
Low36 °F (Oct 22, 10:20 AM)22% (Oct 16, 3:50 PM)29.47 "Hg (Oct 23, 8:20 AM)
Average64 °F61%29.99 "Hg
* Reported Oct 16 11:20 AM — Oct 31 10:20 AM, Peristeri, Weather by CustomWeather, © 2014

Note: Actual official high and low records may vary slightly from our data, if they occured in-between our weather recording intervals... More about our weather records

Advertising

Peristeri weather history for previous 24 hours

 ConditionsComfort  
Time TempWeatherWind HumidityBarometerVisibility
10:20 AM
Oct 31
59 °FPartly sunny.9 mph68%30.09 "HgN/A
9:50 AM59 °FScattered clouds.12 mph68%30.09 "HgN/A
9:20 AM59 °FPassing clouds.9 mph68%30.09 "HgN/A
8:50 AM59 °FPassing clouds.12 mph68%30.09 "HgN/A
8:20 AM59 °FPassing clouds.9 mph68%30.09 "HgN/A
7:50 AM57 °FPassing clouds.9 mph72%30.07 "HgN/A
7:20 AM55 °FPassing clouds.8 mph77%30.07 "HgN/A
6:50 AM54 °FScattered clouds.8 mph82%30.07 "HgN/A
6:20 AM55 °FPassing clouds.No wind72%30.07 "HgN/A
5:50 AM54 °FPassing clouds.7 mph82%30.07 "HgN/A
5:20 AM54 °FPassing clouds.5 mph82%30.07 "HgN/A
4:20 AM52 °FPassing clouds.5 mph88%30.07 "HgN/A
3:50 AM54 °FPassing clouds.6 mph82%30.07 "HgN/A
3:20 AM55 °FPassing clouds.6 mph77%30.07 "HgN/A
2:50 AM55 °FPassing clouds.5 mph77%30.07 "HgN/A
2:20 AM57 °FPassing clouds.9 mph72%30.07 "HgN/A
1:50 AM57 °FPassing clouds.5 mph67%30.07 "HgN/A
1:20 AM59 °FPassing clouds.No wind63%30.07 "HgN/A
12:50 AM57 °FPassing clouds.No wind72%30.07 "HgN/A
12:20 AM55 °FPassing clouds.7 mph77%30.07 "HgN/A
11:50 PM
Oct 30
59 °FPassing clouds.6 mph68%30.07 "HgN/A
11:20 PM57 °FPassing clouds.No wind77%30.07 "HgN/A
10:50 PM55 °FPassing clouds.No wind82%30.07 "HgN/A
10:20 PM57 °FPassing clouds.No wind77%30.07 "HgN/A
9:50 PM55 °FPassing clouds.6 mph82%30.07 "HgN/A
9:20 PM55 °FPassing clouds.No wind77%30.07 "HgN/A
8:50 PM57 °FPassing clouds.No wind72%30.07 "HgN/A
8:20 PM57 °FPassing clouds.No wind72%30.07 "HgN/A
7:50 PM59 °FPassing clouds.No wind68%30.07 "HgN/A
7:20 PM61 °FPassing clouds.No wind63%30.07 "HgN/A
6:50 PM59 °FPassing clouds.No wind68%30.04 "HgN/A
6:20 PM59 °FPassing clouds.No wind72%30.04 "HgN/A
5:50 PM61 °FPassing clouds.No wind63%30.04 "HgN/A
5:20 PM63 °FScattered clouds.6 mph59%30.04 "HgN/A
4:50 PM64 °FScattered clouds.7 mph56%30.04 "HgN/A
4:20 PM64 °FScattered clouds.5 mph56%30.04 "HgN/A
3:50 PM66 °FScattered clouds.5 mph49%30.04 "HgN/A
3:20 PM64 °FPartly sunny.6 mph56%30.04 "HgN/A
2:50 PM66 °FPartly sunny.7 mph52%30.04 "HgN/A
2:20 PM66 °FScattered clouds.9 mph52%30.04 "HgN/A
1:50 PM66 °FScattered clouds.8 mph49%30.04 "HgN/A
1:20 PM68 °FScattered clouds.9 mph46%30.04 "HgN/A
12:50 PM68 °FScattered clouds.8 mph46%30.04 "HgN/A
11:50 AM66 °FPassing clouds.10 mph49%30.07 "HgN/A
11:20 AM66 °FPassing clouds.9 mph49%30.07 "HgN/A
Weather by CustomWeather, © 2014

See weather overviewHow to use our weather pages